Location: The Saddle
(36.8333°N, 80.3417°W)
Time: 08:57:18
(UTC-04:00)

A-11 Canister half - Pass Details

Date: 01 June 2024
Orbit: 1515 x 1685 km, 47.2° (Epoch: 17 June)

Event Time Altitude Azimuth Distance (km) Brightness Sun altitude
Rises 22:44:23 0° 206° (SSW) 4,890 11.4 -20.5°
Reaches altitude 10° 22:47:47 10° 199° (SSW) 3,887 10.8 -21.0°
Maximum altitude 22:56:51 42° 133° (SE) 2,177 9.3 -22.0°
Drops below altitude 10° 23:05:37 10° 67° (ENE) 3,777 10.9 -23.0°
Sets 23:08:51 0° 60° (ENE) 4,741 11.5 -23.4°
